Location: Ida Center
(41.8662°N, 83.5713°W)
Time: 11:08:14
(UTC+00:00)

H-2A R/B - Pass Details

Date: 17 November 2019
Orbit: 500 x 543 km, 97.3° (Epoch: 11 December)

Event Time Altitude Azimuth Distance (km) Brightness Sun altitude
Rises 23:04:41 0° 167° (SSE) 2,669 6.4 -10.0°
Reaches altitude 10° 23:06:47 10° 168° (SSE) 1,778 5.5 -10.4°
Maximum altitude 23:10:38 87° 258° (WSW) 534 2.7 -11.1°
Drops below altitude 10° 23:14:28 10° 348° (NNW) 1,768 5.4 -11.7°
Sets 23:16:33 0° 348° (NNW) 2,653 6.3 -12.1°
